Location: İstanbul
(41.0082°N, 28.9784°E)
Time: 01:44:49
(UTC+03:00)

CAS-6 - Visible Passes

Search period start: 25 April 2024 00:00
Search period end: 05 May 2024 00:00
Orbit: 607 x 629 km, 97.8° (Epoch: 24 April)

Date Brightness Start Highest point End Pass type
(mag) Time Alt. Az. Time Alt. Az. Time Alt. Az.
25 Apr ? 23:23:25 34° NNW 23:23:25 34° NNW 23:25:55 10° NNW visible
26 Apr ? 22:03:05 14° ENE 22:03:05 14° ENE 22:04:59 10° NNE visible
26 Apr ? 23:40:12 29° NW 23:40:12 29° NW 23:42:30 10° NNW visible
27 Apr ? 22:19:52 20° NE 22:19:52 20° NE 22:22:23 10° NNE visible
27 Apr ? 23:56:59 23° NW 23:56:59 23° NW 23:58:56 10° NNW visible
28 Apr ? 22:36:38 28° NE 22:36:38 28° NE 22:39:28 10° N visible
29 Apr ? 00:13:45 17° WNW 00:13:45 17° WNW 00:15:11 10° NW visible
29 Apr ? 22:53:24 36° NNE 22:53:24 36° NNE 22:56:22 10° N visible
30 Apr ? 00:30:31 12° WNW 00:30:31 12° WNW 00:31:03 10° NW visible
30 Apr ? 23:10:09 43° N 23:10:09 43° N 23:13:08 10° N visible
01 May ? 21:49:47 11° ENE 21:50:02 11° ENE 21:51:00 10° NE visible
01 May ? 23:26:54 41° NNW 23:26:54 41° NNW 23:29:47 10° NNW visible
02 May ? 22:06:32 16° ENE 22:06:32 16° ENE 22:09:02 10° NNE visible
02 May ? 23:43:39 33° NW 23:43:39 33° NW 23:46:18 10° NNW visible
03 May ? 22:23:17 23° ENE 22:23:17 23° ENE 22:26:18 10° NNE visible
04 May ? 00:00:24 24° WNW 00:00:24 24° WNW 00:02:40 10° NNW visible
04 May ? 22:40:01 32° NE 22:40:01 32° NE 22:43:18 10° N visible
